Regional Weather Roundup
Issued by NWS

Home | Current Version | Previous Version | Graphics & Text | Print | Product List | Glossary On
Versions: 1 2 3 4 5 6 7 8 9 10 11 12 13 14 15 16 17 18 19 20 21 22 23 24 25 26 27 28 29 30 31 32 33 34 35 36 37 38 39 40 41 42 43 44 45 46 47 48 49 50
000
ASUS45 KTFX 011810
RWRMT
MONTANA REGIONAL WEATHER ROUNDUP
NATIONAL WEATHER SERVICE GREAT FALLS MT
1200 PM MDT SAT AUG 01 2015

NOTE: "FAIR" INDICATES FEW OR NO CLOUDS BELOW 12000 FEET WITH NO
SIGNIFICANT WEATHER AND/OR OBSTRUCTIONS TO VISIBILITY.

MTZ001>007-043-011900-
WEST OF THE DIVIDE

CITY           SKY/WX    TMP DP  RH WIND       PRES   REMARKS
KALISPELL      CLEAR     86  37  17 S8        29.99F
MISSOULA       SUNNY     77  33  20 VRB3      30.07F
BUTTE          SUNNY     83  31  15 N5        30.20F
MULLAN PASS    SUNNY     78  28  16 CALM      30.23S
DEER LODGE       N/A     81  37  21 CALM      30.17F
EUREKA           N/A     79  37  22 CALM      29.99F
HAMILTON         N/A     79  43  27 NW3       30.07F
LIBBY            N/A     82  36  18 NW3       29.96F
PLAINS           N/A     87  41  19 CALM      29.99F
RONAN            N/A     89  35  14 SE5       30.06F
$$

MTZ008-052>055-011900-
SOUTHWEST MONTANA

CITY           SKY/WX    TMP DP  RH WIND       PRES   REMARKS
BOZEMAN        SUNNY     82  46  28 CALM      30.14F
DILLON         SUNNY     80  34  19 SW3       30.18F
W YELLOWSTONE  SUNNY     72  37  28 CALM      30.33F
THREE FORKS      N/A     79  47  32 NE1       30.11F
TWIN BRIDGES     N/A     77  40  26 SE3       30.15F
$$

MTZ009-010-012-014-046-048-049-054-011900-
EAST SLOPES AND CENTRAL MONTANA

CITY           SKY/WX    TMP DP  RH WIND       PRES   REMARKS
CUT BANK       SUNNY     92  25   9 W12G18    29.99F
GREAT FALLS    SUNNY     90  32  12 MISG      30.01F
MALMSTROM AFB  SUNNY     90  31  12 W13G22    30.00F
HELENA         SUNNY     81  43  26 VRB6      30.08F
CONRAD           N/A     91  27  10 W13       30.02S
$$

MTZ011-013-016-021-045-047-050-051-011900-
NORTH CENTRAL MONTANA

CITY           SKY/WX    TMP DP  RH WIND       PRES   REMARKS
HAVRE          SUNNY     89  39  17 SW9       29.91F
LEWISTOWN      SUNNY     90  34  13 N8G23     30.05F
CHINOOK          N/A     88  43  20 W10       29.89F
FORT BENTON      N/A     93  27   9 W13G18    29.93F
$$

MTZ017>020-022>027-061-062-011900-
NORTHEAST MONTANA

CITY           SKY/WX    TMP DP  RH WIND       PRES   REMARKS
GLASGOW        SUNNY     89  46  22 SW8       29.86F
JORDAN           N/A     95  34  11 NW15G23   29.90F HX  90
SIDNEY         SUNNY    N/A N/A N/A SE8       29.87F
WOLF POINT     SUNNY     93  50  23 SW7       29.84F HX  90
MALTA            N/A     88  52  29 SW8       29.85F
PLENTYWOOD       N/A     88  50  27 S8        29.86F
POPLAR           N/A     90  48  24 S8        29.85F
SCOBEY           N/A     88  50  27 S7        29.86F
$$

MTZ028>42-056>058-011900-
SOUTHCENTRAL AND SOUTHEAST MONTANA

CITY           SKY/WX    TMP DP  RH WIND       PRES   REMARKS
BAKER          SUNNY     91  40  16 NW9       29.98F
BILLINGS       MOSUNNY   86  42  21 SW12      30.04F
LIVINGSTON     SUNNY     89  32  13 W10       30.12F
MILES CITY     SUNNY     92  42  17 SW7G16    29.94F
FORSYTH          N/A     93  39  15 W10G16    29.94F
LAUREL           N/A     90  39  16 S9        30.02F
ROUNDUP          N/A     92  36  14 S5        29.92F
$$

REGIONAL REPORTS...DAKOTAS

CITY           SKY/WX    TMP DP  RH WIND       PRES   REMARKS
WILLISTON      SUNNY     86  56  35 S7        29.88F
MINOT          SUNNY     85  50  29 SE7       29.85F
DICKINSON      SUNNY     86  51  29 NW6       29.91F
CROSBY         FAIR      86  55  35 SW12      29.86F
BISMARCK       SUNNY     84  57  39 CALM      29.86F
GRAND FORKS    MOSUNNY   82  53  36 SW9       29.84F
FARGO          MOSUNNY   83  54  36 S10       29.87F
BUFFALO SD       N/A     92  34  13 N17G23    29.91F
RAPID CITY     SUNNY     85  58  39 S3        30.02F
$$

REGIONAL REPORTS...WYOMING/IDAHO/WASHINGTON

CITY           SKY/WX    TMP DP  RH WIND       PRES   REMARKS
GILLETTE       SUNNY     89  30  12 VRB6G17   30.10F
SHERIDAN       SUNNY     93  26   9 N8G17     30.06F
BUFFALO WY     SUNNY     89  27  10 N9        30.15F
CODY           SUNNY     86  30  13 W3        30.17S
YELLOWSTONE LA   N/A     65  44  46 CALM      30.43F
IDAHO FALLS    SUNNY     83  42  23 CALM      30.19F
SALMON         SUNNY     75  41  29 NW3       30.13F
BOISE          SUNNY     93  37  14 VRB3      30.03F
SPOKANE        MOSUNNY   89  35  14 CALM      29.98S
$$

REGIONAL REPORTS...ALBERTA

CITY           SKY/WX    TMP DP  RH WIND       PRES   REMARKS
EDMONTON       MOSUNNY   63  55  77 W8        30.00S
CALGARY        MOSUNNY   73  54  49 NE14G21   30.00S
LETHBRIDGE     SUNNY     82  46  28 SW7       29.93F
MEDICINE HAT   SUNNY     81  48  32 SW6       29.89F
WATERTON GATE    N/A     84  34  16 SW14G21     N/A
MILK RIVER       N/A     91  34  13 W15G22      N/A
$$

REGIONAL REPORTS...SASKATCHEWAN

CITY           SKY/WX    TMP DP  RH WIND       PRES   REMARKS
SWIFT CURRENT  SUNNY     79  54  41 NW10      29.86S
REGINA         PTSUNNY   84  57  39 VRB3      29.84F
SASKATOON      PTSUNNY   72  57  60 N8        29.89R
CYPRESS HILLS    N/A     79  39  24 NW8         N/A
VAL MARIE        N/A     88  43  20 NW13        N/A
ROCKGLEN         N/A     86  48  26 S16G23      N/A
$$


USA.gov is the U.S. government's official web portal to all federal, state and local government web resources and services.